Flag for Germany Weather past 2 weeks in Marburg, Hesse, Germany

Now
59 °F

Fog.


Feels Like: 59 °F
Forecast: 60 / 76 °F
Wind: No wind

Location: Giessen

Current Time: Aug 2, 2014 at 8:50:32 AM

Latest Report: Aug 2, 2014 at 8:00 AM


Visibility: 4 mi

Pressure: 29.80 "Hg

Humidity: 95%

Dew point: 57 °F

Location of MarburgLocation

Historic Weather in Marburg — Graph

°F

Marburg temperature yesterday

Maximum temperature yesterday: 81 °F (at 5:00 PM)
Minimum temperature yesterday: 54 °F (at 6:00 AM)
Average temperature yesterday: 68 °F

Past Weeks' High & Low Weather Summary

 TemperatureHumidityPressure
High89 °F (Jul 19, 6:00 PM)98% (Jul 26, 7:00 AM)30.12 "Hg (Jul 26, 7:00 AM)
Low54 °F (Aug 1, 6:00 AM)31% (Jul 18, 7:00 PM)29.72 "Hg (Jul 29, 5:00 PM)
Average70 °F73%29.90 "Hg
* Reported Jul 18 7:00 AM — Aug 2 7:00 AM, Marburg, Weather by CustomWeather, © 2014

Note: Actual official high and low records may vary slightly from our data, if they occured in-between our weather recording intervals... More about our weather records

Advertising

Marburg weather history for previous 24 hours

 ConditionsComfort  
Time TempWeatherWind HumidityBarometerVisibility
7:00 AM
Aug 2
57 °FFog.1 mph97%29.80 "Hg3 mi
6:00 AM54 °FOvercast.1 mph97%29.80 "Hg2 mi
5:00 AM56 °FFog.2 mph95%29.80 "Hg3 mi
4:00 AM57 °FOvercast.1 mph94%29.81 "Hg6 mi
3:00 AM58 °FOvercast.2 mph93%29.82 "Hg6 mi
2:00 AM60 °FPassing clouds.1 mph90%29.83 "Hg12 mi
1:00 AM60 °FPassing clouds.2 mph89%29.83 "Hg10 mi
12:00 AM64 °FOvercast.2 mph80%29.83 "Hg16 mi
11:00 PM
Aug 1
64 °FPassing clouds.1 mph82%29.83 "Hg16 mi
10:00 PM71 °FClear.2 mph63%29.82 "Hg16 mi
9:00 PM74 °FSunny.2 mph53%29.80 "Hg25 mi
8:00 PM77 °FPartly sunny.3 mph46%29.80 "HgN/A
7:00 PM79 °FOvercast.5 mph45%29.80 "Hg43 mi
6:00 PM80 °FOvercast.3 mph46%29.80 "HgN/A
5:00 PM81 °FOvercast.3 mph44%29.81 "Hg11 mi
4:00 PM80 °FOvercast.3 mph39%29.82 "Hg17 mi
3:00 PM79 °FOvercast.3 mph46%29.83 "Hg19 mi
2:00 PM78 °FWarm.3 mph49%29.85 "Hg18 mi
1:00 PM77 °FOvercast.3 mph53%29.86 "Hg19 mi
12:00 PM76 °FOvercast.2 mph55%29.87 "Hg25 mi
11:00 AM72 °FOvercast.1 mph63%29.89 "Hg22 mi
10:00 AM68 °FPartly sunny.2 mph70%29.90 "Hg16 mi
9:00 AM63 °FScattered clouds.2 mph81%29.92 "Hg12 mi
8:00 AM59 °FPassing clouds.1 mph87%29.93 "Hg8 mi
Weather by CustomWeather, © 2014

See weather overviewHow to use our weather pages